Location: Kuppenheim
(48.8299°N, 8.2568°E)
Time: 15:09:40
(UTC+00:00)

UNK - Pass Details

Date: 20 June 2021
Orbit: 666 x 686 km, 98.2° (Epoch: 31 July)

Event Time Altitude Azimuth Distance (km) Brightness Sun altitude
Exits shadow 00:54:20 14° 154° (SSE) 1,851 5.6 -15.2°
Maximum altitude 00:58:16 69° 73° (ENE) 727 4.0 -15.0°
Drops below altitude 10° 01:02:54 10° 350° (N) 2,128 7.2 -14.7°
Sets 01:05:09 0° 349° (NNW) 3,051 8.1 -14.6°
